Stigler, OK

11:33 PM CDT on July 23, 2016 (GMT -0500)
Stigler

Weather History for KGZL - November, 2012

Change the Weather History Date:

Friday, November 9, 2012

  Actual Average (KJSV) Record (KJSV)
Temperature  
Mean Temperature 66 °F -  
Max Temperature 77 °F 64 °F 82 °F (1980)
Min Temperature 55 °F 43 °F 16 °F (1955)
Cooling Degree Days 1    
Growing Degree Days 16 (Base 50)    
Moisture  
Dew Point 53 °F    
Average Humidity 59    
Maximum Humidity 82    
Minimum Humidity 47    
Precipitation  
Precipitation 0.00 in - - ()
Sea Level Pressure  
Sea Level Pressure 29.97 in    
Wind  
Wind Speed 11 mph (South)    
Max Wind Speed 23 mph    
Max Gust Speed 31 mph    
Visibility 10 miles    
Events      
Averages and records for this station are not official NWS values.
T = Trace of Precipitation, MM = Missing Value Source: NWS Daily Summary

Daily Weather History Graph

Daily Weather History Graph

Search for Another Location

Airport or City:

Trip Planner

Search our weather history database for the weather conditions in past years. The results will help you decide how hot, cold, wet, or windy it might be!

Date:

Astronomy

Nov. 09, 2012 Rise Set
Actual Time 6:50 AM CST 5:18 PM CST
Civil Twilight 6:23 AM CST 5:44 PM CST
Nautical Twilight 5:52 AM CST 6:15 PM CST
Astronomical Twilight 5:22 AM CST 6:45 PM CST
Moon 1:59 AM CST (11/9) 2:23 PM CST (11/9)
Length of Visible Light 11h 21m
Length of Day
10h 28m
Waning Crescent, 23% of the Moon is Illuminated
Nov 9
Waning Crescent
Nov 13
New
Nov 20
First Quarter
Nov 28
Full
Dec 6
Last Quarter

Hourly Weather History & Observations

Time (CST) Temp. Dew Point Humidity Pressure Visibility Wind Dir Wind Speed Gust Speed Precip Events Conditions
12:15 AM 57.2 °F 41.0 °F 55% 30.00 in 10.0 mi SSE 9.2 mph - N/A   Scattered Clouds
12:55 AM 60.8 °F 42.8 °F 52% 29.99 in 10.0 mi SE 9.2 mph 16.1 mph N/A   Partly Cloudy
1:15 AM 59.0 °F 42.8 °F 55% 29.99 in 10.0 mi SE 9.2 mph - N/A   Partly Cloudy
1:35 AM 59.0 °F 44.6 °F 59% 29.99 in 10.0 mi SE 6.9 mph - N/A   Partly Cloudy
1:55 AM 55.4 °F 44.6 °F 67% 30.00 in 7.0 mi SE 6.9 mph - N/A   Partly Cloudy
2:15 AM 55.4 °F 44.6 °F 67% 30.00 in 10.0 mi SE 8.1 mph - N/A   Partly Cloudy
2:35 AM 57.2 °F 44.6 °F 63% 30.00 in 10.0 mi SE 9.2 mph - N/A   Clear
2:55 AM 57.2 °F 46.4 °F 67% 30.00 in 10.0 mi SE 9.2 mph - N/A   Clear
3:15 AM 57.2 °F 46.4 °F 67% 30.00 in 10.0 mi SE 9.2 mph - N/A   Clear
3:35 AM 59.0 °F 48.2 °F 67% 30.00 in 10.0 mi SSE 8.1 mph - N/A   Clear
3:55 AM 57.2 °F 48.2 °F 72% 30.00 in 10.0 mi SSE 6.9 mph - N/A   Clear
4:15 AM 59.0 °F 50.0 °F 72% 30.00 in 10.0 mi SSE 6.9 mph - N/A   Scattered Clouds
4:35 AM 59.0 °F 51.8 °F 77% 30.01 in 10.0 mi SSE 8.1 mph - N/A   Mostly Cloudy
4:55 AM 57.2 °F 50.0 °F 77% 30.01 in 10.0 mi South 6.9 mph - N/A   Overcast
5:15 AM 59.0 °F 53.6 °F 82% 30.01 in 10.0 mi SSE 6.9 mph - N/A   Overcast
5:55 AM 62.6 °F 55.4 °F 77% 30.01 in 10.0 mi South 6.9 mph - N/A   Overcast
6:15 AM 62.6 °F 55.4 °F 77% 30.01 in 10.0 mi SSW 6.9 mph - N/A   Overcast
6:35 AM 64.4 °F 55.4 °F 73% 30.01 in 10.0 mi SSW 10.4 mph 16.1 mph N/A   Overcast
6:55 AM 64.4 °F 55.4 °F 73% 30.02 in 10.0 mi SSW 11.5 mph 19.6 mph N/A   Overcast
7:15 AM 64.4 °F 55.4 °F 73% 30.02 in 10.0 mi SSW 8.1 mph 24.2 mph N/A   Overcast
7:35 AM 64.4 °F 55.4 °F 73% 30.03 in 9.0 mi SSW 11.5 mph 19.6 mph N/A   Scattered Clouds
7:55 AM 64.4 °F 55.4 °F 73% 30.03 in 9.0 mi SSW 13.8 mph 19.6 mph N/A   Clear
8:15 AM 64.4 °F 55.4 °F 73% 30.04 in 9.0 mi SSW 10.4 mph 19.6 mph N/A   Scattered Clouds
8:35 AM 66.2 °F 55.4 °F 68% 30.04 in 9.0 mi South 13.8 mph 21.9 mph N/A   Scattered Clouds
8:55 AM 66.2 °F 55.4 °F 68% 30.04 in 10.0 mi SSW 12.7 mph 19.6 mph N/A   Scattered Clouds
9:15 AM 68.0 °F 55.4 °F 64% 30.03 in 9.0 mi SSW 17.3 mph 28.8 mph N/A   Scattered Clouds
9:35 AM 68.0 °F 55.4 °F 64% 30.03 in 10.0 mi SSW 13.8 mph 28.8 mph N/A   Partly Cloudy
9:55 AM 68.0 °F 55.4 °F 64% 30.03 in 9.0 mi SSW 21.9 mph 29.9 mph N/A   Clear
10:15 AM 69.8 °F 55.4 °F 60% 30.03 in 9.0 mi SW 21.9 mph 31.1 mph N/A   Partly Cloudy
10:35 AM 71.6 °F 55.4 °F 57% 30.03 in 9.0 mi SSW 19.6 mph 27.6 mph N/A   Scattered Clouds
10:55 AM 71.6 °F 55.4 °F 57% 30.02 in 9.0 mi SSW 18.4 mph 24.2 mph N/A   Mostly Cloudy
11:15 AM 71.6 °F 55.4 °F 57% 30.02 in 9.0 mi SSW 19.6 mph 26.5 mph N/A   Mostly Cloudy
11:35 AM 71.6 °F 55.4 °F 57% 30.01 in 10.0 mi SSW 16.1 mph 23.0 mph N/A   Mostly Cloudy
11:55 AM 73.4 °F 55.4 °F 53% 29.99 in 10.0 mi SSW 23.0 mph 28.8 mph N/A   Mostly Cloudy
12:15 PM 71.6 °F 55.4 °F 57% 29.98 in 10.0 mi SSW 17.3 mph 25.3 mph N/A   Mostly Cloudy
12:35 PM 71.6 °F 55.4 °F 57% 29.97 in 9.0 mi SSW 17.3 mph 27.6 mph N/A   Scattered Clouds
12:55 PM 73.4 °F 55.4 °F 53% 29.96 in 10.0 mi SSW 16.1 mph 29.9 mph N/A   Partly Cloudy
1:15 PM 73.4 °F 55.4 °F 53% 29.95 in 9.0 mi SSW 15.0 mph 21.9 mph N/A   Scattered Clouds
1:35 PM 75.2 °F 55.4 °F 50% 29.94 in 10.0 mi SSW 15.0 mph 24.2 mph N/A   Mostly Cloudy
1:55 PM 75.2 °F 55.4 °F 50% 29.92 in 10.0 mi South 17.3 mph 25.3 mph N/A   Partly Cloudy
2:15 PM 77.0 °F 55.4 °F 47% 29.92 in 9.0 mi South 16.1 mph 23.0 mph N/A   Clear
2:35 PM 77.0 °F 55.4 °F 47% 29.91 in 9.0 mi South 17.3 mph 24.2 mph N/A   Clear
2:55 PM 77.0 °F 55.4 °F 47% 29.90 in 9.0 mi South 13.8 mph 26.5 mph N/A   Clear
3:15 PM 77.0 °F 55.4 °F 47% 29.90 in 9.0 mi South 15.0 mph 23.0 mph N/A   Clear
3:35 PM 77.0 °F 55.4 °F 47% 29.90 in 10.0 mi South 15.0 mph 20.7 mph N/A   Clear
4:15 PM 77.0 °F 55.4 °F 47% 29.90 in 10.0 mi South 16.1 mph 23.0 mph N/A   Clear
4:35 PM 75.2 °F 53.6 °F 47% 29.90 in 9.0 mi South 11.5 mph 18.4 mph N/A   Clear
4:55 PM 75.2 °F 53.6 °F 47% 29.91 in 10.0 mi South 11.5 mph 19.6 mph N/A   Clear
5:15 PM 75.2 °F 53.6 °F 47% 29.91 in 10.0 mi South 13.8 mph 18.4 mph N/A   Partly Cloudy
5:35 PM 73.4 °F 53.6 °F 50% 29.91 in 10.0 mi South 10.4 mph 17.3 mph N/A   Clear
5:55 PM 73.4 °F 53.6 °F 50% 29.92 in 10.0 mi South 10.4 mph 17.3 mph N/A   Clear
6:15 PM 71.6 °F 53.6 °F 53% 29.93 in 10.0 mi South 11.5 mph 16.1 mph N/A   Partly Cloudy
6:35 PM 71.6 °F 53.6 °F 53% 29.93 in 10.0 mi South 12.7 mph 18.4 mph N/A   Mostly Cloudy
6:55 PM 71.6 °F 53.6 °F 53% 29.93 in 10.0 mi South 12.7 mph 17.3 mph N/A   Mostly Cloudy
7:15 PM 71.6 °F 53.6 °F 53% 29.94 in 10.0 mi SSE 9.2 mph - N/A   Mostly Cloudy
7:35 PM 71.6 °F 53.6 °F 53% 29.94 in 10.0 mi SSE 8.1 mph - N/A   Scattered Clouds
7:55 PM 71.6 °F 53.6 °F 53% 29.94 in 10.0 mi South 9.2 mph - N/A   Partly Cloudy
8:15 PM 71.6 °F 53.6 °F 53% 29.94 in 10.0 mi SSE 9.2 mph - N/A   Partly Cloudy
8:35 PM 71.6 °F 53.6 °F 53% 29.95 in 10.0 mi South 10.4 mph 17.3 mph N/A   Partly Cloudy
8:55 PM 71.6 °F 53.6 °F 53% 29.95 in 10.0 mi South 12.7 mph 19.6 mph N/A   Clear
9:15 PM 71.6 °F 53.6 °F 53% 29.95 in 10.0 mi South 15.0 mph 19.6 mph N/A   Clear
9:35 PM 69.8 °F 53.6 °F 56% 29.95 in 10.0 mi South 15.0 mph 20.7 mph N/A   Clear
9:55 PM 69.8 °F 51.8 °F 53% 29.95 in 10.0 mi South 16.1 mph 23.0 mph N/A   Clear
10:15 PM 69.8 °F 51.8 °F 53% 29.95 in 10.0 mi South 12.7 mph 20.7 mph N/A   Clear
10:35 PM 68.0 °F 51.8 °F 56% 29.95 in 10.0 mi South 12.7 mph 20.7 mph N/A   Partly Cloudy
10:55 PM 68.0 °F 51.8 °F 56% 29.95 in 10.0 mi South 11.5 mph 16.1 mph N/A   Clear
11:15 PM 68.0 °F 51.8 °F 56% 29.95 in 10.0 mi South 9.2 mph - N/A   Clear
11:35 PM 68.0 °F 51.8 °F 56% 29.95 in 10.0 mi South 9.2 mph - N/A   Clear
11:55 PM 68.0 °F 51.8 °F 56% 29.95 in 10.0 mi South 10.4 mph - N/A   Clear